Miami, FL

10:20 PM EST on February 21, 2018 (GMT -0500)
Miami International

Weather History for KMIA - June, 2013

Change the Weather History Date:

Wednesday, June 5, 2013

  Actual Average Record
Temperature  
Mean Temperature 82 °F 82 °F  
Max Temperature 85 °F 89 °F 95 °F (1991)
Min Temperature 79 °F 75 °F 65 °F (1939)
Degree Days  
Heating Degree Days 0 0  
Month to date heating degree days 0 0  
Since 1 June heating degree days 0 0  
Since 1 July heating degree days 70 128  
Cooling Degree Days 17 17  
Month to date cooling degree days 81 85  
Year to date cooling degree days 1526 1441  
Since 1 June cooling degree days 81 85  
Growing Degree Days 32 (Base 50)    
Moisture  
Dew Point 74 °F    
Average Humidity 81    
Maximum Humidity 91    
Minimum Humidity 70    
Precipitation  
Precipitation T in 0.28 in 3.02 in (1964)
Month to date precipitation 1.48 1.40  
Year to date precipitation 20.85 16.75  
Snow  
Snow 0.00 in - - ()
Month to date snowfall 0.0  
Since 1 June snowfall 0.0  
Since 1 July snowfall 0.0  
Snow Depth 0.00 in    
Sea Level Pressure  
Sea Level Pressure 29.96 in    
Wind  
Wind Speed 11 mph (ESE)    
Max Wind Speed 21 mph    
Max Gust Speed 25 mph    
Visibility 10 miles    
Events Rain    
T = Trace of Precipitation, MM = Missing Value Source: NWS Daily Summary

Daily Weather History Graph

Daily Weather History Graph

Search for Another Location

Airport or City:

Trip Planner

Search our weather history database for the weather conditions in past years. The results will help you decide how hot, cold, wet, or windy it might be!

Date:

Astronomy

Jun. 05, 2013 Rise Set
Actual Time 6:29 AM EDT 8:10 PM EDT
Civil Twilight 6:03 AM EDT 8:36 PM EDT
Nautical Twilight 5:32 AM EDT 9:07 PM EDT
Astronomical Twilight 4:59 AM EDT 9:39 PM EDT
Moon 4:18 AM EDT (6/5) 5:46 PM EDT (6/5)
Length of Visible Light 14h 32m
Length of Day
13h 41m
Waning Crescent, 8% of the Moon is Illuminated
Jun 5
Waning Crescent
Jun 8
New
Jun 16
First Quarter
Jun 23
Full
Jun 30
Last Quarter

Hourly Weather History & Observations

Time (EDT) Temp. Heat Index Dew Point Humidity Pressure Visibility Wind Dir Wind Speed Gust Speed Precip Events Conditions
12:53 AM 80.1 °F 84.5 °F 73.9 °F 81% 30.03 in 10.0 mi East 10.4 mph - 0.00 in Rain Light Rain
1:53 AM 80.1 °F 84.5 °F 73.9 °F 81% 30.01 in 10.0 mi East 11.5 mph - 0.00 in   Overcast
2:53 AM 80.1 °F 84.5 °F 73.9 °F 81% 29.99 in 10.0 mi ESE 6.9 mph - 0.00 in Rain Light Rain
3:53 AM 80.1 °F 85.1 °F 75.0 °F 85% 29.97 in 10.0 mi ESE 8.1 mph - 0.00 in   Overcast
4:53 AM 79.0 °F - 73.9 °F 84% 29.96 in 10.0 mi East 6.9 mph - 0.00 in   Overcast
5:53 AM 79.0 °F - 75.0 °F 88% 29.95 in 10.0 mi East 6.9 mph - N/A   Mostly Cloudy
6:53 AM 81.0 °F 86.2 °F 73.9 °F 79% 29.97 in 10.0 mi ESE 5.8 mph - N/A   Overcast
7:53 AM 81.0 °F 86.2 °F 73.9 °F 79% 29.97 in 10.0 mi East 9.2 mph - N/A   Overcast
8:53 AM 81.0 °F 86.7 °F 75.0 °F 82% 29.99 in 10.0 mi ESE 10.4 mph - N/A   Overcast
9:53 AM 82.0 °F 87.9 °F 73.9 °F 76% 29.99 in 10.0 mi ESE 11.5 mph - N/A   Overcast
10:53 AM 82.9 °F 89.4 °F 73.9 °F 74% 29.99 in 10.0 mi ESE 10.4 mph - N/A   Overcast
11:40 AM 82.4 °F 89.5 °F 75.2 °F 79% 29.99 in 10.0 mi ESE 11.5 mph - N/A   Overcast
11:53 AM 82.9 °F 90.2 °F 75.0 °F 77% 29.99 in 10.0 mi ESE 10.4 mph - N/A   Overcast
12:53 PM 84.0 °F 91.2 °F 73.9 °F 72% 29.99 in 10.0 mi ESE 11.5 mph - N/A   Overcast
1:53 PM 84.0 °F 91.2 °F 73.9 °F 72% 29.97 in 10.0 mi East 12.7 mph - N/A   Overcast
2:53 PM 84.0 °F 91.2 °F 73.9 °F 72% 29.97 in 10.0 mi ESE 11.5 mph - N/A   Overcast
3:53 PM 84.0 °F 91.9 °F 75.0 °F 74% 29.95 in 10.0 mi East 11.5 mph - N/A   Overcast
4:53 PM 82.9 °F 90.2 °F 75.0 °F 77% 29.92 in 10.0 mi East 11.5 mph - N/A   Overcast
5:53 PM 82.0 °F 88.6 °F 75.0 °F 79% 29.90 in 10.0 mi East 11.5 mph - N/A   Overcast
6:53 PM 82.0 °F 88.6 °F 75.0 °F 79% 29.91 in 7.0 mi East 16.1 mph - N/A   Overcast
7:53 PM 80.1 °F 84.5 °F 73.9 °F 81% 29.91 in 7.0 mi ESE 20.7 mph 25.3 mph N/A   Overcast
8:53 PM 80.1 °F 83.6 °F 71.1 °F 74% 29.93 in 10.0 mi ESE 11.5 mph - N/A   Overcast
9:53 PM 81.0 °F 87.3 °F 75.9 °F 85% 29.92 in 10.0 mi East 15.0 mph - N/A   Overcast
10:53 PM 81.0 °F 86.7 °F 75.0 °F 82% 29.92 in 10.0 mi ESE 10.4 mph - N/A   Overcast
10:55 PM 80.6 °F 86.2 °F 75.2 °F 84% 29.92 in 10.0 mi ESE 10.4 mph - N/A   Overcast
11:53 PM 82.0 °F 89.4 °F 75.9 °F 82% 29.93 in 8.0 mi ESE 16.1 mph 21.9 mph N/A   Overcast